This demonstration page uses our WeatherBlox Daily Observations layout. Learn more.

Left ArrowRight Arrow

Hourly Observations for April 16, 2021

Temp ( °F °C ) Dew Point ( °F °C ) Humidity (%) Winds ( mph kmh ) Pressure ( in mb ) Visibility ( mi km ) Precip ( " mm )
12:15 am 00:15 Clear 45 7 32 0 61 61 NNW 10 17 29.85 1011 10 16.0934 0 0
12:35 am 00:35 Clear 45 7 32 0 61 61 NNW 8 13 29.85 1011 10 16.0934 0 0
12:55 am 00:55 Clear 43 6 32 0 66 66 NW 6 9 29.85 1011 10 16.0934 0 0
1:15 am 01:15 Clear 43 6 32 0 66 66 NW 8 13 29.85 1011 10 16.0934 0 0
1:35 am 01:35 Clear 43 6 32 0 66 66 NW 7 11 29.85 1011 10 16.0934 0 0
1:55 am 01:55 Partly Cloudy 43 6 32 0 66 66 NW 5 7 29.84 1011 10 16.0934 0 0
2:15 am 02:15 Partly Cloudy 43 6 32 0 66 66 WNW 5 7 29.84 1011 10 16.0934 0 0
2:35 am 02:35 Clear 41 5 32 0 70 70 NW 6 9 29.83 1010 10 16.0934 0 0
2:55 am 02:55 Clear 41 5 32 0 70 70 WNW 7 11 29.83 1010 10 16.0934 0 0
3:15 am 03:15 Clear 41 5 32 0 70 70 W 8 13 29.82 1010 10 16.0934 0 0
3:35 am 03:35 Clear 41 5 32 0 70 70 WNW 6 9 29.82 1010 10 16.0934 0 0
3:55 am 03:55 Clear 41 5 32 0 70 70 WNW 7 11 29.81 1010 10 16.0934 0 0
4:15 am 04:15 Clear 43 6 32 0 66 66 WNW 10 17 29.81 1010 10 16.0934 0 0
4:35 am 04:35 Partly Cloudy 43 6 34 1 71 71 WNW 12 19 29.81 1010 10 16.0934 0 0
4:55 am 04:55 Partly Cloudy 45 7 34 1 66 66 WNW 9 15 29.8 1009 10 16.0934 0 0
5:15 am 05:15 Partly Cloudy 43 6 34 1 71 71 NW 10 17 29.81 1010 10 16.0934 0 0
5:35 am 05:35 Partly Cloudy 43 6 34 1 71 71 NNW 13 20 29.81 1010 10 16.0934 0 0
5:55 am 05:55 Partly Cloudy 45 7 34 1 66 66 NNW 16 26 29.81 1010 10 16.0934 0 0
6:15 am 06:15 Clear 43 6 34 1 71 71 NW 20 31 29.8 1009 10 16.0934 0 0
6:35 am 06:35 Sunny 43 6 34 1 71 71 NW 14 22 29.81 1010 10 16.0934 0 0
6:55 am 06:55 Sunny 43 6 34 1 71 71 WNW 12 19 29.81 1010 10 16.0934 0 0
7:15 am 07:15 Sunny 43 6 34 1 71 71 W 5 7 29.82 1010 10 16.0934 0 0
7:35 am 07:35 Partly Cloudy 43 6 34 1 71 71 SW 3 6 29.83 1010 10 16.0934 0 0
7:55 am 07:55 Partly Cloudy 43 6 34 1 71 71 SSW 3 6 29.83 1010 10 16.0934 0 0
8:15 am 08:15 Partly Cloudy 43 6 36 2 76 76 W 7 11 29.83 1010 10 16.0934 0 0
8:35 am 08:35 Mostly Cloudy 46 8 36 2 66 66 WNW 10 17 29.83 1010 10 16.0934 0 0
8:55 am 08:55 Cloudy 46 8 36 2 66 66 WNW 14 22 29.83 1010 10 16.0934 0 0
9:15 am 09:15 Mostly Cloudy 46 8 36 2 66 66 WNW 13 20 29.83 1010 10 16.0934 0 0
9:35 am 09:35 Cloudy 50 10 37 3 62 62 WNW 15 24 29.83 1010 10 16.0934 0 0
9:55 am 09:55 Cloudy 50 10 37 3 62 62 WNW 15 24 29.82 1010 10 16.0934 0 0
10:15 am 10:15 Cloudy 50 10 37 3 62 62 W 15 24 29.82 1010 10 16.0934 0 0
10:35 am 10:35 Cloudy 52 11 37 3 58 58 WNW 16 26 29.81 1010 10 16.0934 0 0
10:55 am 10:55 Cloudy 50 10 37 3 62 62 WNW 12 19 29.82 1010 10 16.0934 0 0
11:15 am 11:15 Cloudy 52 11 37 3 58 58 WNW 13 20 29.81 1010 10 16.0934 0 0
11:35 am 11:35 Cloudy 50 10 36 2 58 58 WNW 18 30 29.82 1010 10 16.0934 0 0
11:55 am 11:55 Cloudy 52 11 36 2 54 54 NW 18 30 29.8 1009 10 16.0934 0 0
12:15 pm 12:15 Cloudy 52 11 37 3 58 58 WNW 15 24 29.8 1009 10 16.0934 0 0
12:35 pm 12:35 Cloudy 52 11 37 3 58 58 WNW 13 20 29.8 1009 10 16.0934 0 0
12:55 pm 12:55 Cloudy 52 11 37 3 58 58 WNW 10 17 29.79 1009 10 16.0934 0 0
1:15 pm 13:15 Cloudy 54 12 37 3 54 54 WNW 17 28 29.79 1009 10 16.0934 0 0
1:35 pm 13:35 Mostly Cloudy 55 13 39 4 55 55 NW 16 26 29.78 1009 10 16.0934 0 0
1:55 pm 13:55 Cloudy 55 13 39 4 55 55 WNW 16 26 29.79 1009 10 16.0934 0 0
2:35 pm 14:35 Mostly Cloudy 57 14 37 3 48 48 WNW 22 35 29.78 1008 10 16.0934 0 0
2:55 pm 14:55 Cloudy 54 12 37 3 54 54 W 16 26 29.78 1009 10 16.0934 0 0
3:15 pm 15:15 Mostly Cloudy 55 13 37 3 51 51 NW 16 26 29.78 1009 10 16.0934 0 0
3:35 pm 15:35 Partly Cloudy 55 13 37 3 51 51 WNW 25 41 29.77 1008 10 16.0934 0 0
3:55 pm 15:55 Partly Cloudy 55 13 37 3 51 51 WNW 13 20 29.78 1009 10 16.0934 0 0
4:15 pm 16:15 Mostly Cloudy 55 13 37 3 51 51 WNW 17 28 29.78 1009 10 16.0934 0 0
4:35 pm 16:35 Cloudy 54 12 36 2 51 51 WNW 20 31 29.78 1009 10 16.0934 0 0
4:55 pm 16:55 Cloudy 54 12 37 3 54 54 NW 21 33 29.78 1009 10 16.0934 0 0
5:15 pm 17:15 Cloudy 54 12 36 2 51 51 WNW 12 19 29.78 1009 10 16.0934 0 0
5:35 pm 17:35 Cloudy 54 12 37 3 54 54 W 15 24 29.78 1009 10 16.0934 0 0
5:55 pm 17:55 Cloudy 52 11 36 2 54 54 WNW 15 24 29.79 1009 10 16.0934 0 0
6:15 pm 18:15 Mostly Cloudy 54 12 36 2 51 51 WNW 22 35 29.79 1009 10 16.0934 0 0
6:35 pm 18:35 Mostly Cloudy 52 11 36 2 54 54 W 21 33 29.8 1009 10 16.0934 0 0
6:55 pm 18:55 Partly Cloudy 52 11 36 2 54 54 WNW 22 35 29.8 1009 10 16.0934 0 0
7:15 pm 19:15 Mostly Cloudy 52 11 36 2 54 54 WNW 14 22 29.82 1010 10 16.0934 0 0
7:35 pm 19:35 Cloudy 52 11 36 2 54 54 WNW 22 35 29.83 1010 10 16.0934 0 0
7:55 pm 19:55 Cloudy 52 11 36 2 54 54 WNW 14 22 29.84 1011 10 16.0934 0 0
8:15 pm 20:15 Cloudy 50 10 36 2 58 58 WNW 15 24 29.86 1011 10 16.0934 0 0
8:35 pm 20:35 Cloudy 50 10 36 2 58 58 WNW 10 17 29.86 1011 10 16.0934 0 0
8:55 pm 20:55 Partly Cloudy 50 10 36 2 58 58 NW 17 28 29.86 1011 10 16.0934 0 0
9:15 pm 21:15 Clear 48 9 36 2 62 62 NW 14 22 29.86 1011 10 16.0934 0 0
9:35 pm 21:35 Clear 48 9 36 2 62 62 NW 10 17 29.87 1011 10 16.0934 0 0
9:55 pm 21:55 Clear 48 9 34 1 58 58 NNW 6 9 29.87 1011 10 16.0934 0 0
10:15 pm 22:15 Clear 46 8 34 1 62 62 N 5 7 29.87 1011 10 16.0934 0 0
10:35 pm 22:35 Clear 46 8 36 2 66 66 NNW 8 13 29.87 1011 10 16.0934 0 0
10:55 pm 22:55 Clear 46 8 36 2 66 66 N 7 11 29.87 1011 10 16.0934 0 0
11:15 pm 23:15 Partly Cloudy 46 8 36 2 66 66 NNW 8 13 29.87 1011 10 16.0934 0 0
11:35 pm 23:35 Clear 45 7 36 2 71 71 WNW 6 9 29.87 1012 10 16.0934 0 0
11:55 pm 23:55 Clear 46 8 36 2 66 66 WNW 3 6 29.86 1011 10 16.0934 0 0

Powered by AerisWeather